Regional Weather Roundup
Issued by NWS Upton, NY

Current Version | Previous Version | Text Only | Print | Product List | Glossary Off
Versions: 1 2 3 4 5 6 7 8 9 10 11 12 13 14 15 16 17 18 19 20 21 22 23 24 25 26 27

000
ASUS41 KOKX 191809
RWROKX

REGIONAL WEATHER ROUNDUP
NATIONAL WEATHER SERVICE NEW YORK NY
200 PM EDT TUE SEP 19 2017

NOTE: "FAIR" INDICATES FEW OR NO CLOUDS BELOW 12,000 FEET WITH NO
SIGNIFICANT WEATHER AND/OR OBSTRUCTIONS TO VISIBILITY.

NYZ071-072-176-178-NJZ106-104-191900-
NEW YORK CITY METRO AREA

CITY           SKY/WX    TMP DP  RH WIND       PRES   REMARKS
Central Park   CLOUDY    77  63  61 NE10G20   29.97F
Bronx Bot Gard   N/A     75  61  60 E9        29.96F
LaGuardia APRT CLOUDY    77  65  66 NE22G29   29.94F
Kennedy INTL   RAIN      72  66  81 NE26G35   29.94F
Breezy Point     N/A     73 N/A N/A NE15G23     N/A
Newark/Liberty CLOUDY    79  63  57 NE18G26   29.94F
Teterboro      PTSUNNY   79  63  57 NE13G22   29.93F
$$

NYZ177-179-078>081-191900-
LONG ISLAND NEW YORK

CITY           SKY/WX    TMP DP  RH WIND       PRES   REMARKS
Jones Beach      N/A     68 N/A N/A NE26        N/A
Matinecock PT    N/A     72 N/A N/A NE20        N/A
Farmingdale    HVY RAIN  68  66  93 NE17G26   29.94S FOG
MacArthur/ISP  LGT RAIN  68  67  96 N16       29.93F FOG
Shirley        LGT RAIN  70  68  93 N13G22    29.92F
Mt Sinai Harb    N/A    N/A N/A N/A NE18G24     N/A
Westhampton    CLOUDY    70  66  87 N22G30    29.92F
East Hampton   LGT RAIN  68  67  95 N16G22    29.91F
Montauk          N/A     69  67  93 N14G23    29.93F
$$

NYZ052-065-067-191900-
HUDSON VALLEY

CITY           SKY/WX    TMP DP  RH WIND       PRES   REMARKS
White Plains   PTSUNNY   75  63  66 NE12G18   29.96F
Larchmont Harb   N/A     73 N/A N/A N20G26      N/A
Croton On Huds   N/A     77 N/A N/A NE9G17      N/A
Newburgh       PTSUNNY   75  66  73 E12G23    30.02F
Montgomery     PTSUNNY   76  65  68 NE14      30.00F
Poughkeepsie   MOSUNNY   78  63  59 NE14G22   29.99F
Albany         MOSUNNY   79  62  56 CALM      30.04F
$$

NJZ001-105-106-008-010-013-015-019>022-104-191900-
NEW JERSEY

CITY           SKY/WX    TMP DP  RH WIND       PRES   REMARKS
Newark/Liberty CLOUDY    79  63  57 NE18G26   29.94F
Teterboro      PTSUNNY   79  63  57 NE13G22   29.93F
Caldwell       CLOUDY    78  66  66 E14G31    29.96F
Somerville     NOT AVBL
Linden         CLOUDY    78  61  55 E15G25    29.93F
Perth Amboy      N/A     75 N/A N/A NE22G30     N/A
Sussex         SUNNY     76  66  71 NE12G22   29.99F
Andover          N/A     78  66  66 VRB5      29.99F
Trenton        CLOUDY    78  65  63 NE21G29   29.92F
Millville      LGT RAIN  74  70  87 N18       29.88F
Atlantic City  RAIN      70  68  93 N17G29    29.85F FOG
Wrightstown    PTSUNNY   71  67  87 N13       29.88F
Toms River     LGT RAIN  69  67  93 N18G24    29.89F
Belmar         RAIN      69  67  93 N16G26    29.91F
$$

PAZ047>061-062-071-191900-
EASTERN PENNSYLVANIA

CITY           SKY/WX    TMP DP  RH WIND       PRES   REMARKS
Philadelphia   CLOUDY    79  64  60 N12G23    29.91F
Allentown      MOSUNNY   81  65  58 NE12      29.97F
Scranton       SUNNY     79  64  60 VRB3      30.01F
$$

CTZ002-004>006-009-010-012-RIZ004-006-007-MAZ004-011-015-191900-
SOUTHERN NEW ENGLAND
 IN CT

CITY           SKY/WX    TMP DP  RH WIND       PRES   REMARKS
Bradley INTL   CLOUDY    74  64  71 NE15      30.02F
Hartford       CLOUDY    75  65  70 N12       30.00F
Danbury        CLOUDY    72  63  73 NE9       30.01F
Wtrbury/Oxford PTSUNNY   69  64  84 N12       30.01F
Norwalk Harbor   N/A     72 N/A N/A N16G23      N/A
Bridgeport     LGT RAIN  72  66  81 NE15      29.96F
Meriden        CLOUDY    73  64  73 N9G16     29.98F
New Haven      LGT RAIN  71  66  84 N13       29.97F
Chester        LGT RAIN  70  66  88 NE9G17    29.98F
Groton         CLOUDY    72  65  78 N21G30    29.94F
Wilimantic     CLOUDY    72  66  81 NE17      30.01F

 IN RI

CITY           SKY/WX    TMP DP  RH WIND       PRES   REMARKS
Providence     LGT RAIN  69  66  90 N20G28    30.01F
Block Island   CLOUDY    67  66  97 N20G30    29.92F
Westerly       LGT RAIN  72  66  81 N12G22    29.96F
 IN MA

CITY           SKY/WX    TMP DP  RH WIND       PRES   REMARKS
Boston         CLOUDY    65  64  97 NE15      30.06F
Worcester      CLOUDY    64  62  93 NE9G18    30.07F
Westfield      PTSUNNY   74  64  71 NE13      30.04F
Provincetown   LGT RAIN  64  63  96 NE13      30.03F FOG
Nantucket      LGT RAIN  68  68 100 NE23G32   29.94F FOG
$$

ANZ330-335-338-340-345-350-353-355-191900-
COASTAL MARINE OBSERVATIONS


STATION/POSITION TIME  SKY/WX   TEMP    WIND        PRES    VSBY  WAVE
                                AIR SEA DIR/SP/G                  HT/PER
                 (UTC)          (F)     (DEG/KT/KT) (MB)    (MI)  (FT/S)
NY HARB ENTRANCE 1750            71 70   20/ 25/ 31 1011.1          8/11
20 S FIRE ISLAND 1750            69 68   20/ 27/ 33 1010.2         13/13
GREAT SOUTH BAY  1715            68 72   20/ 21/ 25   N/A
23 SSW MONTAUK P 1750            67 68              1011.2         12/13
15 E BARNEGAT LI 1730               70                N/A          12/12
HUDSON CANYON    1750            69 70   40/ 31/ 39 1005.7         17/12
KINGS POINT      1742            75 71   70/  9/ 16 1014.9
EXECUTION ROCKS  1745            74      60/ 16/ 21   N/A
WESTERN LI SOUND NOT AVBL
CENTRAL LI SOUND NOT AVBL
EASTERN LI SOUND NOT AVBL
ROBBINS REEF     1748            74      50/ 23/ 29 1014.3
$$


>>>>>>>>>>>>>>>>>>>>>>>>>>>> KEY <<<<<<<<<<<<<<<<<<<<<<<<<<<
>                                                          <
>     SKY/WX - Sky Condition/Present Weather               <
>     TMP    - Temperature in Fahrenheit                   <
>     DP     - Dew Point in Fahrenheit                     <
>     RH     - Relative Humidity in Percent                <
>     WIND   - Direction (from) and Speed in MPH           <
>     PRES   - Mean Sea Level Pressure (inches of Hg)      <
>     WCI    - Wind Chill Index                            <
>     VSB    - VISIBILITY IN MILES                         <
>     HX     - HEAT INDEX                                  <
>     TC     - TEMPERATURE IN CELSIUS                      <
>     VRB    - VARIABLE WIND DIRECTION                     <
>                                                          <
>>>>>>>>>>>>>>>>>>>>>>>>>>>> KEY <<<<<<<<<<<<<<<<<<<<<<<<<<<




USA.gov is the U.S. government's official web portal to all federal, state and local government web resources and services.